weather.gov     
National Weather Service

Regional Weather Roundup
NWS Homepage
This page is being discontinued on March 12, 2014.
The same data is available at this site. Please update your bookmarks.
Thank you, and we apologize for the inconvenience.
Please send an email to SR-SRH.Webmaster@noaa.gov with any concerns.


Current Version
Previous Version:    01  02  03  04  05  06  07  08  09  10  11  12  13  14  15  16  17  18  19  20  21  22  23  24  25  26  27  
[Printable]
629
ASUS42 KRAH 271410
RWRRAH
NORTH CAROLINA WEATHER ROUNDUP
NATIONAL WEATHER SERVICE RALEIGH NC
900 AM EST TUE JAN 27 2015

NOTE: "FAIR" INDICATES FEW OR NO CLOUDS BELOW 12,000 FEET WITH NO
SIGNIFICANT WEATHER AND/OR OBSTRUCTIONS TO VISIBILITY.

NCZ001-053-055-056-065-067-271500-
WESTERN NORTH CAROLINA

CITY           SKY/WX    TMP DP  RH WIND       PRES   REMARKS
ASHEVILLE      FLURRIES  29  23  78 N10       29.82R WCI  20
JEFFERSON      CLOUDY    22  11  63 NW15G22   29.73S WCI   8
MORGANTON      CLOUDY    33  19  55 NW8       29.89R WCI  26
HICKORY        CLOUDY    32  18  56 NW7       29.83R WCI  26
RUTHERFORDTON  CLOUDY    31  24  73 CALM      29.85S
MOUNT AIRY     CLOUDY    32  17  52 NW7G20    29.83S WCI  26
BOONE          CLOUDY    22  15  72 NW17G23   29.76R WCI   8
$$

NCZ021-022-025-041-071-084-088-271500-
CENTRAL NORTH CAROLINA

CITY           SKY/WX    TMP DP  RH WIND       PRES   REMARKS
CHARLOTTE      CLOUDY    33  19  56 N6        29.85R WCI  28
GREENSBORO     MOSUNNY   30  16  56 NW5       29.82R WCI  25
WINSTON-SALEM  SUNNY     31  13  47 NW13      29.83R WCI  21
RALEIGH-DURHAM PTSUNNY   34  19  54 NW7       29.82R WCI  28
FORT BRAGG     CLOUDY    37  21  54 NW8       29.82R WCI  30
FAYETTEVILLE   CLOUDY    37  21  52 NW12      29.82R WCI  29
BURLINGTON     CLOUDY    32  12  43 NW8       29.83R WCI  25
LAURINBURG     SUNNY     36  20  52 N12       29.85R WCI  28
$$

NCZ011-015-027-028-043-044-047-080-103-271500-
NORTHEASTERN NORTH CAROLINA

CITY           SKY/WX    TMP DP  RH WIND       PRES   REMARKS
ROCKY MT-WILSO CLOUDY    34  30  85 N9        29.82R WCI  27
GREENVILLE     CLOUDY    34  32  93 N12       29.84R WCI  25
WASHINGTON     CLOUDY    32  28  86 N12       29.80R WCI  23
ELIZABETH CITY LGT SNOW  30  28  93 NW14      29.77R FOG     WCI  20
MANTEO         LGT RAIN  32  30  93 NW10G17   29.74S WCI  24
CAPE HATTERAS  CLOUDY    34  31  88 N8G21     29.73R WCI  27
$$

NCZ078-087-090-091-093-098-101-271500-
SOUTHEASTERN NORTH CAROLINA

CITY           SKY/WX    TMP DP  RH WIND       PRES   REMARKS
LUMBERTON      CLOUDY    38  24  57 NW12      29.83R WCI  30
GOLDSBORO      CLOUDY    36  35  98 NW7       29.79R WCI  30
KINSTON        CLOUDY    36  30  80 N10       29.81R WCI  28
KENANSVILLE    CLOUDY    35  34  96 NW8       29.81R FOG     WCI  28
NEW BERN       CLOUDY    37  27  67 N9G18     29.79R WCI  30
CHERRY POINT   CLOUDY    36  28  73 N16       29.78R WCI  26
BEAUFORT       CLOUDY    37  31  78 N18       29.76R WCI  27
JACKSONVILLE   PTSUNNY   38  30  73 NW13      29.79R WCI  30
WILMINGTON     CLOUDY    38  36  92 NW13      29.80R WCI  30
$$





U.S. Dept. of Commerce
NOAA National Weather Service
1325 East West Highway
Silver Spring, MD 20910
E-mail: w-nws.webmaster@noaa.gov
Page last modified: May 16, 2007
NATIONAL WEATHER SERVICE: for Safety, for Work, for Fun - FOR LIFE